When you browse on this site, cookies collect data to enhance your experience and personalize the content and advertising you see.
Visit our Privacy Policy to learn more. By continuing to use the site, you agree to this use of cookies and data.
  • In Hungary
  • List of Countries
  • For 7 days
  • Water Temperature
  • Weather Map
  • News
  • Weather Widgets
  • user-avatar
    Login

    Hourly Weather Myasnikovo

    Today, 19 September, Thursday

    Time Temperature Precipitation Wind Pressure Humidity
    00:00 +4°C° 0 mm 3 mps 736 mmHg 97%
    01:00 +4°C° 0 mm 3 mps 737 mmHg 97%
    02:00 +4°C° 0 mm 3 mps 737 mmHg 97%
    03:00 +4°C° 0 mm 3 mps 738 mmHg 95%
    04:00 +4°C° 0 mm 3 mps 738 mmHg 93%
    05:00 +4°C° 0 mm 3 mps 739 mmHg 92%
    06:00 +5°C° 0 mm 3 mps 739 mmHg 90%
    07:00 +5°C° 0 mm 3 mps 740 mmHg 88%
    08:00 +5°C° 0 mm 3 mps 741 mmHg 86%
    09:00 +7°C° 0.1 mm 3 mps 741 mmHg 83%
    10:00 +7°C° 0.1 mm 3 mps 741 mmHg 80%
    11:00 +8°C° 0.1 mm 3 mps 742 mmHg 77%
    12:00 +8°C° 0.1 mm 3 mps 742 mmHg 77%
    13:00 +7°C° 0.1 mm 3 mps 743 mmHg 77%
    14:00 +7°C° 0.1 mm 3 mps 743 mmHg 77%
    15:00 +7°C° 0.1 mm 2 mps 743 mmHg 78%
    16:00 +7°C° 0.1 mm 2 mps 743 mmHg 80%
    17:00 +7°C° 0.1 mm 1 mps 744 mmHg 81%
    18:00 +6°C° 0 mm 1 mps 744 mmHg 83%
    19:00 +5°C° 0 mm 1 mps 744 mmHg 84%
    20:00 +4°C° 0 mm 1 mps 744 mmHg 86%
    21:00 +4°C° 0 mm 1 mps 744 mmHg 85%
    22:00 +4°C° 0 mm 1 mps 745 mmHg 85%
    23:00 +4°C° 0 mm 1 mps 745 mmHg 84%

    Tomorrow, 20 September, Friday

    Time Temperature Precipitation Wind Pressure Humidity
    00:00 +4°C° 0 mm 1 mps 745 mmHg 85%
    01:00 +4°C° 0 mm 1 mps 745 mmHg 85%
    02:00 +4°C° 0 mm 1 mps 745 mmHg 86%
    03:00 +3°C° 0 mm 1 mps 745 mmHg 87%
    04:00 +3°C° 0 mm 1 mps 745 mmHg 88%
    05:00 +3°C° 0 mm 1 mps 745 mmHg 89%
    06:00 +4°C° 0 mm 1 mps 745 mmHg 86%
    07:00 +5°C° 0 mm 1 mps 745 mmHg 83%
    08:00 +6°C° 0 mm 1 mps 745 mmHg 80%
    09:00 +7°C° 0 mm 1 mps 745 mmHg 74%
    10:00 +8°C° 0 mm 1 mps 745 mmHg 67%
    11:00 +9°C° 0 mm 1 mps 745 mmHg 61%
    12:00 +9°C° 0.1 mm 2 mps 745 mmHg 59%
    13:00 +9°C° 0.1 mm 2 mps 745 mmHg 56%
    14:00 +9°C° 0.1 mm 2 mps 745 mmHg 54%
    15:00 +8°C° 0.1 mm 2 mps 745 mmHg 61%
    16:00 +7°C° 0.1 mm 2 mps 745 mmHg 69%
    17:00 +6°C° 0.1 mm 2 mps 745 mmHg 76%
    18:00 +5°C° 0 mm 2 mps 745 mmHg 82%
    19:00 +4°C° 0 mm 2 mps 745 mmHg 87%
    20:00 +4°C° 0 mm 2 mps 745 mmHg 93%
    21:00 +3°C° 0 mm 2 mps 745 mmHg 94%
    22:00 +2°C° 0 mm 2 mps 745 mmHg 95%
    23:00 +2°C° 0 mm 2 mps 745 mmHg 97%

    Day after tomorrow, 21 September, Saturday

    Time Temperature Precipitation Wind Pressure Humidity
    00:00 +1°C° 0 mm 2 mps 745 mmHg 96%
    01:00 +1°C° 0 mm 2 mps 745 mmHg 96%
    02:00 -1°C° 0 mm 2 mps 745 mmHg 96%
    03:00 -1°C° 0 mm 2 mps 745 mmHg 96%
    04:00 -1°C° 0 mm 2 mps 745 mmHg 95%
    05:00 -2°C° 0 mm 2 mps 745 mmHg 95%
    06:00 +1°C° 0 mm 2 mps 745 mmHg 89%
    07:00 +2°C° 0 mm 2 mps 745 mmHg 83%
    08:00 +4°C° 0 mm 2 mps 745 mmHg 78%
    09:00 +5°C° 0 mm 2 mps 745 mmHg 71%
    10:00 +5°C° 0 mm 3 mps 744 mmHg 65%
    11:00 +7°C° 0 mm 3 mps 744 mmHg 58%
    12:00 +6°C° 0 mm 4 mps 743 mmHg 65%
    13:00 +6°C° 0 mm 4 mps 743 mmHg 71%
    14:00 +5°C° 0 mm 4 mps 742 mmHg 77%
    15:00 +5°C° 0.1 mm 4 mps 741 mmHg 80%
    16:00 +5°C° 0.1 mm 3 mps 741 mmHg 84%
    17:00 +4°C° 0.1 mm 3 mps 740 mmHg 87%
    18:00 +4°C° 0.2 mm 3 mps 739 mmHg 89%
    19:00 +4°C° 0.2 mm 4 mps 738 mmHg 91%
    20:00 +3°C° 0.2 mm 4 mps 737 mmHg 93%
    21:00 +4°C° 0.4 mm 4 mps 736 mmHg 94%
    22:00 +4°C° 0.4 mm 4 mps 735 mmHg 95%
    23:00 +4°C° 0.4 mm 3 mps 734 mmHg 96%

    22 September, Sunday

    Time Temperature Precipitation Wind Pressure Humidity
    00:00 +4°C° 0.3 mm 4 mps 733 mmHg 96%
    01:00 +4°C° 0.3 mm 4 mps 732 mmHg 96%
    02:00 +5°C° 0.3 mm 4 mps 731 mmHg 96%
    03:00 +3°C° 0.5 mm 5 mps 731 mmHg 95%
    04:00 +3°C° 0.5 mm 6 mps 730 mmHg 93%
    05:00 +2°C° 0.5 mm 7 mps 730 mmHg 92%
    06:00 +2°C° 0.1 mm 7 mps 731 mmHg 90%
    07:00 0°C° 0.1 mm 8 mps 731 mmHg 88%
    08:00 0°C° 0.1 mm 9 mps 732 mmHg 86%
    09:00 0°C° 0.2 mm 10 mps 733 mmHg 82%
    10:00 +1°C° 0.2 mm 10 mps 734 mmHg 77%
    11:00 +2°C° 0.2 mm 11 mps 734 mmHg 72%
    12:00 +2°C° 0.1 mm 10 mps 736 mmHg 71%
    13:00 +2°C° 0.1 mm 10 mps 737 mmHg 70%
    14:00 +2°C° 0.1 mm 9 mps 738 mmHg 69%
    15:00 +2°C° 0.1 mm 8 mps 739 mmHg 71%
    16:00 +3°C° 0.1 mm 7 mps 740 mmHg 73%
    17:00 +2°C° 0.1 mm 6 mps 741 mmHg 75%
    18:00 +2°C° 0.1 mm 6 mps 742 mmHg 79%
    19:00 +2°C° 0.1 mm 6 mps 742 mmHg 83%
    20:00 +1°C° 0.1 mm 5 mps 743 mmHg 87%
    21:00 +1°C° 0.1 mm 5 mps 743 mmHg 87%
    22:00 +1°C° 0.1 mm 5 mps 744 mmHg 86%
    23:00 0°C° 0.1 mm 4 mps 744 mmHg 86%

    23 September, Monday

    Time Temperature Precipitation Wind Pressure Humidity
    00:00 0°C° 0 mm 4 mps 745 mmHg 87%
    01:00 -1°C° 0 mm 4 mps 745 mmHg 88%
    02:00 -1°C° 0 mm 4 mps 745 mmHg 89%
    03:00 -1°C° 0 mm 4 mps 746 mmHg 89%
    04:00 -1°C° 0 mm 4 mps 746 mmHg 90%
    05:00 -1°C° 0 mm 4 mps 746 mmHg 91%
    06:00 -1°C° 0 mm 4 mps 746 mmHg 88%
    07:00 -1°C° 0 mm 4 mps 747 mmHg 84%
    08:00 0°C° 0 mm 4 mps 747 mmHg 81%
    09:00 +1°C° 0 mm 4 mps 747 mmHg 73%
    10:00 +4°C° 0 mm 4 mps 747 mmHg 65%
    11:00 +5°C° 0 mm 4 mps 747 mmHg 58%
    12:00 +6°C° 0 mm 4 mps 747 mmHg 58%
    13:00 +6°C° 0 mm 4 mps 747 mmHg 58%
    14:00 +6°C° 0 mm 4 mps 746 mmHg 58%
    15:00 +5°C° 0.1 mm 4 mps 746 mmHg 64%
    16:00 +4°C° 0.1 mm 3 mps 746 mmHg 70%
    17:00 +3°C° 0.1 mm 3 mps 746 mmHg 76%
    18:00 +3°C° 0 mm 2 mps 746 mmHg 81%
    19:00 +2°C° 0 mm 2 mps 746 mmHg 87%
    20:00 +1°C° 0 mm 2 mps 746 mmHg 92%
    21:00 +1°C° 0 mm 2 mps 746 mmHg 93%
    22:00 +1°C° 0 mm 2 mps 746 mmHg 94%
    23:00 -1°C° 0 mm 2 mps 746 mmHg 95%

    24 September, Tuesday

    Time Temperature Precipitation Wind Pressure Humidity
    00:00 -1°C° 0 mm 2 mps 746 mmHg 95%
    01:00 -1°C° 0 mm 2 mps 746 mmHg 95%
    02:00 -2°C° 0 mm 2 mps 746 mmHg 96%
    03:00 -2°C° 0 mm 2 mps 746 mmHg 96%
    04:00 -2°C° 0 mm 2 mps 746 mmHg 96%
    05:00 -2°C° 0 mm 2 mps 746 mmHg 96%
    06:00 +1°C° 0 mm 1 mps 746 mmHg 90%
    07:00 +2°C° 0 mm 1 mps 746 mmHg 83%
    08:00 +4°C° 0 mm 1 mps 746 mmHg 77%
    09:00 +5°C° 0 mm 1 mps 746 mmHg 71%
    10:00 +7°C° 0 mm 1 mps 746 mmHg 64%
    11:00 +8°C° 0 mm 1 mps 746 mmHg 58%
    12:00 +8°C° 0 mm 1 mps 745 mmHg 58%
    13:00 +8°C° 0 mm 1 mps 745 mmHg 58%
    14:00 +8°C° 0 mm 1 mps 745 mmHg 58%
    15:00 +7°C° 0 mm 1 mps 745 mmHg 61%
    16:00 +6°C° 0 mm 1 mps 745 mmHg 64%
    17:00 +6°C° 0 mm 1 mps 745 mmHg 67%
    18:00 +5°C° 0 mm 1 mps 745 mmHg 67%
    19:00 +5°C° 0 mm 1 mps 745 mmHg 68%
    20:00 +5°C° 0 mm 1 mps 745 mmHg 69%
    21:00 +4°C° 0 mm 1 mps 745 mmHg 69%
    22:00 +4°C° 0 mm 1 mps 745 mmHg 70%
    23:00 +4°C° 0 mm 1 mps 745 mmHg 71%
    Show more